• In Deutschland
  • Länderverzeichnis
  • Für 7 Tage
  • Wassertemperatur
  • Satellitenkarten
  • Wetterkarte
  • Widgets
  • user-avatar
    Anmelden

    Stündliche Wetter Wegberg

    Heute, 14 Dezember, Donnerstag

    Zeit Temperatur Niederschläge Wind Luftdruck Luftfeuchtigkeit
    00:00 +3°C° 0,3 mm 6 m/S 736 mmHg 83%
    01:00 +3°C° 0,6 mm 6 m/S 736 mmHg 83%
    02:00 +3°C° 0,6 mm 6 m/S 736 mmHg 84%
    03:00 +3°C° 0,6 mm 7 m/S 736 mmHg 84%
    04:00 +2°C° 0,4 mm 7 m/S 737 mmHg 81%
    05:00 +1°C° 0,4 mm 8 m/S 737 mmHg 77%
    06:00 +1°C° 0,4 mm 9 m/S 738 mmHg 74%
    07:00 +1°C° 0 mm 8 m/S 738 mmHg 74%
    08:00 +1°C° 0 mm 8 m/S 739 mmHg 74%
    09:00 +2°C° 0 mm 7 m/S 740 mmHg 74%
    10:00 +2°C° 0,1 mm 7 m/S 739 mmHg 73%
    11:00 +3°C° 0,1 mm 7 m/S 739 mmHg 72%
    12:00 +4°C° 0,1 mm 8 m/S 739 mmHg 71%
    13:00 +3°C° 0,1 mm 7 m/S 739 mmHg 72%
    14:00 +3°C° 0,1 mm 6 m/S 738 mmHg 74%
    15:00 +3°C° 0,1 mm 5 m/S 738 mmHg 76%
    16:00 +3°C° 0 mm 4 m/S 738 mmHg 78%
    17:00 +3°C° 0 mm 4 m/S 737 mmHg 79%
    18:00 +1°C° 0 mm 4 m/S 737 mmHg 81%
    19:00 +1°C° 0 mm 4 m/S 737 mmHg 83%
    20:00 +2°C° 0 mm 3 m/S 737 mmHg 84%
    21:00 +2°C° 0 mm 3 m/S 737 mmHg 86%
    22:00 +1°C° 0 mm 3 m/S 737 mmHg 87%
    23:00 +1°C° 0 mm 3 m/S 737 mmHg 88%

    Morgen, 15 Dezember, Freitag

    Zeit Temperatur Niederschläge Wind Luftdruck Luftfeuchtigkeit
    00:00 +1°C° 0 mm 3 m/S 738 mmHg 89%
    01:00 0°C° 0 mm 4 m/S 738 mmHg 88%
    02:00 0°C° 0 mm 4 m/S 738 mmHg 88%
    03:00 -1°C° 0 mm 4 m/S 738 mmHg 87%
    04:00 -1°C° 0 mm 4 m/S 739 mmHg 87%
    05:00 -1°C° 0 mm 4 m/S 739 mmHg 87%
    06:00 -1°C° 0 mm 4 m/S 739 mmHg 87%
    07:00 0°C° 0 mm 3 m/S 739 mmHg 86%
    08:00 +1°C° 0 mm 3 m/S 739 mmHg 86%
    09:00 +1°C° 0 mm 3 m/S 740 mmHg 85%
    10:00 +2°C° 0 mm 3 m/S 740 mmHg 84%
    11:00 +3°C° 0 mm 3 m/S 740 mmHg 83%
    12:00 +3°C° 0 mm 3 m/S 741 mmHg 81%
    13:00 +3°C° 0 mm 3 m/S 741 mmHg 84%
    14:00 +3°C° 0 mm 3 m/S 742 mmHg 86%
    15:00 +3°C° 0 mm 3 m/S 742 mmHg 89%
    16:00 +3°C° 0,1 mm 3 m/S 743 mmHg 89%
    17:00 +4°C° 0,1 mm 2 m/S 743 mmHg 90%
    18:00 +4°C° 0,1 mm 2 m/S 744 mmHg 91%
    19:00 +3°C° 0 mm 2 m/S 744 mmHg 91%
    20:00 +2°C° 0 mm 3 m/S 745 mmHg 91%
    21:00 +2°C° 0 mm 3 m/S 746 mmHg 91%
    22:00 +2°C° 0 mm 3 m/S 746 mmHg 91%
    23:00 +2°C° 0 mm 2 m/S 747 mmHg 92%

    übermorgen, 16 Dezember, Samstag

    Zeit Temperatur Niederschläge Wind Luftdruck Luftfeuchtigkeit
    00:00 +2°C° 0 mm 2 m/S 747 mmHg 92%
    01:00 +2°C° 0 mm 2 m/S 748 mmHg 91%
    02:00 +2°C° 0 mm 2 m/S 748 mmHg 90%
    03:00 +2°C° 0 mm 2 m/S 749 mmHg 90%
    04:00 +1°C° 0,1 mm 3 m/S 749 mmHg 90%
    05:00 +1°C° 0,1 mm 3 m/S 750 mmHg 90%
    06:00 0°C° 0,1 mm 3 m/S 750 mmHg 90%
    07:00 +1°C° 0 mm 3 m/S 751 mmHg 88%
    08:00 +1°C° 0 mm 3 m/S 751 mmHg 87%
    09:00 +1°C° 0 mm 3 m/S 752 mmHg 85%
    10:00 +1°C° 0,1 mm 4 m/S 752 mmHg 81%
    11:00 +3°C° 0,1 mm 4 m/S 752 mmHg 78%
    12:00 +4°C° 0,1 mm 4 m/S 753 mmHg 74%
    13:00 +3°C° 0,2 mm 4 m/S 753 mmHg 75%
    14:00 +3°C° 0,2 mm 4 m/S 754 mmHg 77%
    15:00 +3°C° 0,2 mm 3 m/S 754 mmHg 78%
    16:00 +1°C° 0,1 mm 4 m/S 754 mmHg 80%
    17:00 +1°C° 0,1 mm 4 m/S 755 mmHg 82%
    18:00 0°C° 0,1 mm 4 m/S 756 mmHg 85%
    19:00 0°C° 0,2 mm 4 m/S 756 mmHg 86%
    20:00 0°C° 0,2 mm 4 m/S 757 mmHg 87%
    21:00 +1°C° 0,2 mm 4 m/S 757 mmHg 87%
    22:00 +1°C° 0,2 mm 4 m/S 757 mmHg 88%
    23:00 +1°C° 0,2 mm 5 m/S 757 mmHg 88%

    17 Dezember, Sonntag

    Zeit Temperatur Niederschläge Wind Luftdruck Luftfeuchtigkeit
    00:00 +1°C° 0,2 mm 5 m/S 758 mmHg 88%
    01:00 +1°C° 0,2 mm 5 m/S 758 mmHg 89%
    02:00 0°C° 0,2 mm 4 m/S 758 mmHg 90%
    03:00 0°C° 0,2 mm 4 m/S 759 mmHg 92%
    04:00 +1°C° 0,1 mm 3 m/S 759 mmHg 92%
    05:00 +1°C° 0,1 mm 3 m/S 759 mmHg 93%
    06:00 +1°C° 0,1 mm 2 m/S 760 mmHg 94%
    07:00 +2°C° 0 mm 2 m/S 760 mmHg 93%
    08:00 +2°C° 0 mm 2 m/S 761 mmHg 92%
    09:00 +2°C° 0 mm 2 m/S 762 mmHg 92%
    10:00 +3°C° 0 mm 2 m/S 762 mmHg 89%
    11:00 +3°C° 0 mm 2 m/S 762 mmHg 86%
    12:00 +4°C° 0 mm 2 m/S 762 mmHg 83%
    13:00 +4°C° 0 mm 2 m/S 762 mmHg 85%
    14:00 +3°C° 0 mm 2 m/S 763 mmHg 87%
    15:00 +3°C° 0 mm 2 m/S 763 mmHg 89%
    16:00 +2°C° 0 mm 3 m/S 763 mmHg 90%
    17:00 +1°C° 0 mm 3 m/S 763 mmHg 91%
    18:00 +1°C° 0 mm 3 m/S 763 mmHg 92%
    19:00 0°C° 0 mm 4 m/S 763 mmHg 90%
    20:00 0°C° 0 mm 4 m/S 763 mmHg 88%
    21:00 +1°C° 0 mm 5 m/S 762 mmHg 87%
    22:00 +2°C° 0,5 mm 5 m/S 762 mmHg 88%
    23:00 +2°C° 0,5 mm 6 m/S 761 mmHg 89%

    18 Dezember, Montag

    Zeit Temperatur Niederschläge Wind Luftdruck Luftfeuchtigkeit
    00:00 +3°C° 0,5 mm 6 m/S 760 mmHg 91%
    01:00 +4°C° 1,2 mm 7 m/S 759 mmHg 91%
    02:00 +5°C° 1,2 mm 7 m/S 759 mmHg 92%
    03:00 +6°C° 1,2 mm 8 m/S 758 mmHg 92%
    04:00 +6°C° 0,8 mm 7 m/S 758 mmHg 93%
    05:00 +7°C° 0,8 mm 6 m/S 758 mmHg 93%
    06:00 +7°C° 0,8 mm 5 m/S 758 mmHg 94%
    07:00 +7°C° 0,3 mm 5 m/S 759 mmHg 93%
    08:00 +7°C° 0,3 mm 5 m/S 759 mmHg 93%
    09:00 +7°C° 0,3 mm 5 m/S 759 mmHg 92%
    10:00 +7°C° 0,1 mm 5 m/S 760 mmHg 87%
    11:00 +7°C° 0,1 mm 6 m/S 760 mmHg 82%
    12:00 +7°C° 0,1 mm 6 m/S 760 mmHg 76%
    13:00 +6°C° 0 mm 5 m/S 761 mmHg 76%
    14:00 +6°C° 0 mm 5 m/S 761 mmHg 76%
    15:00 +5°C° 0 mm 4 m/S 761 mmHg 77%
    16:00 +5°C° 0 mm 4 m/S 762 mmHg 78%
    17:00 +4°C° 0 mm 3 m/S 763 mmHg 80%
    18:00 +4°C° 0 mm 3 m/S 763 mmHg 82%
    19:00 +4°C° 0 mm 2 m/S 764 mmHg 84%
    20:00 +4°C° 0 mm 2 m/S 765 mmHg 87%
    21:00 +3°C° 0 mm 2 m/S 765 mmHg 89%
    22:00 +3°C° 0 mm 2 m/S 765 mmHg 90%
    23:00 +4°C° 0 mm 1 m/S 765 mmHg 90%

    19 Dezember, Dienstag

    Zeit Temperatur Niederschläge Wind Luftdruck Luftfeuchtigkeit
    00:00 +4°C° 0 mm 1 m/S 766 mmHg 90%
    01:00 +4°C° 0 mm 1 m/S 766 mmHg 90%
    02:00 +4°C° 0 mm 1 m/S 767 mmHg 90%
    03:00 +4°C° 0 mm 1 m/S 767 mmHg 90%
    04:00 +4°C° 0 mm 1 m/S 767 mmHg 91%
    05:00 +4°C° 0 mm 1 m/S 767 mmHg 91%
    06:00 +4°C° 0 mm 1 m/S 768 mmHg 91%
    07:00 +4°C° 0 mm 1 m/S 768 mmHg 90%
    08:00 +4°C° 0 mm 1 m/S 768 mmHg 89%
    09:00 +4°C° 0 mm 1 m/S 769 mmHg 88%
    10:00 +5°C° 0 mm 1 m/S 769 mmHg 85%
    11:00 +6°C° 0 mm 1 m/S 769 mmHg 81%
    12:00 +7°C° 0 mm 1 m/S 769 mmHg 78%
    13:00 +6°C° 0 mm 1 m/S 769 mmHg 80%
    14:00 +6°C° 0 mm 1 m/S 769 mmHg 82%
    15:00 +6°C° 0 mm 1 m/S 769 mmHg 84%
    16:00 +5°C° 0 mm 1 m/S 769 mmHg 84%
    17:00 +5°C° 0 mm 1 m/S 769 mmHg 85%
    18:00 +4°C° 0 mm 1 m/S 770 mmHg 86%
    19:00 +4°C° 0 mm 1 m/S 770 mmHg 85%
    20:00 +4°C° 0 mm 1 m/S 770 mmHg 85%
    21:00 +3°C° 0 mm 2 m/S 771 mmHg 84%
    22:00 +3°C° 0 mm 2 m/S 771 mmHg 83%
    23:00 +3°C° 0 mm 2 m/S 771 mmHg 82%
    Mehr zeigen